Location: Bartlow
(52.0833°N, 0.3167°E)
Time: 05:22:00
(UTC+00:00)

Meteor 2-17 Rocket - Pass Details

Date: 26 April 2024
Orbit: 934 x 957 km, 82.5° (Epoch: 25 May)

Event Time Altitude Azimuth Distance (km) Brightness Sun altitude
Exits shadow 01:46:54 36° 209° (SSW) 1,449 4.9 -20.1°
Maximum altitude 01:49:27 70° 283° (WNW) 1,004 4.5 -19.9°
Drops below altitude 10° 01:55:33 10° 8° (N) 2,669 7.8 -19.4°
Sets 01:58:04 0° 10° (N) 3,615 8.8 -19.2°
